GLO1431 SBGO-SBSP

Flight info

Callsign GLO1431
Flight time 1h 35m
Altitude 36000
Route DALO3A ESBOD DCT UTLOT ORES1B
Aircraft B738/M-SDFGIKLORWXY/LB1

Departure

Time 2026-05-05 15:17
Airport Santa Genoveva International Airport (SBGO)

Arrival

Time 2026-05-05 16:53
Airport Congonhas–Deputado Freitas Nobre Airport (SBSP)
Time Latitude Longitude Altitude Speed Heading
2026-05-05 15:05 -16.62975 -49.21531 2461 ft 0 kts 64°
2026-05-05 15:09 -16.62980 -49.21541 2461 ft 4 kts 64°
2026-05-05 15:10 -16.62990 -49.21563 2464 ft 3 kts 62°
2026-05-05 15:10 -16.63006 -49.21580 2461 ft 4 kts
2026-05-05 15:10 -16.63031 -49.21577 2461 ft 4 kts 335°
2026-05-05 15:10 -16.63047 -49.21568 2461 ft 0 kts 324°
2026-05-05 15:13 -16.63005 -49.21596 2466 ft 14 kts 332°
2026-05-05 15:13 -16.62919 -49.21641 2462 ft 14 kts 309°
2026-05-05 15:13 -16.62930 -49.21745 2460 ft 17 kts 256°
2026-05-05 15:13 -16.62962 -49.21883 2454 ft 22 kts 256°
2026-05-05 15:14 -16.62990 -49.22032 2446 ft 21 kts 266°
2026-05-05 15:14 -16.62965 -49.22176 2451 ft 20 kts 296°
2026-05-05 15:14 -16.62896 -49.22301 2457 ft 20 kts 300°
2026-05-05 15:14 -16.62829 -49.22422 2455 ft 19 kts 300°
2026-05-05 15:15 -16.62764 -49.22538 2460 ft 18 kts 300°
2026-05-05 15:15 -16.62700 -49.22650 2459 ft 18 kts 300°
2026-05-05 15:15 -16.62639 -49.22758 2463 ft 17 kts 300°
2026-05-05 15:15 -16.62580 -49.22863 2464 ft 16 kts 300°
2026-05-05 15:16 -16.62580 -49.22930 2457 ft 10 kts 201°
2026-05-05 15:16 -16.62651 -49.22965 2453 ft 12 kts 207°
2026-05-05 15:16 -16.62727 -49.22947 2455 ft 17 kts 126°
2026-05-05 15:16 -16.62917 -49.22608 2461 ft 91 kts 120°
2026-05-05 15:17 -16.63354 -49.21831 2453 ft 154 kts 120°
2026-05-05 15:17 -16.63973 -49.20711 2629 ft 192 kts 120°
2026-05-05 15:17 -16.64623 -49.19561 3680 ft 181 kts 120°
2026-05-05 15:17 -16.65297 -49.18359 4287 ft 206 kts 120°
2026-05-05 15:18 -16.66070 -49.16981 4520 ft 235 kts 120°
2026-05-05 15:18 -16.67106 -49.15626 4953 ft 249 kts 142°
2026-05-05 15:18 -16.68723 -49.15013 5641 ft 253 kts 177°
2026-05-05 15:18 -16.70434 -49.15427 6365 ft 256 kts 208°
2026-05-05 15:19 -16.71844 -49.16600 6970 ft 262 kts 214°
2026-05-05 15:19 -16.73531 -49.17167 7374 ft 272 kts 176°
2026-05-05 15:19 -16.75429 -49.16773 7873 ft 284 kts 164°
2026-05-05 15:19 -16.77366 -49.16289 8716 ft 287 kts 167°
2026-05-05 15:20 -16.79336 -49.15865 9619 ft 290 kts 168°
2026-05-05 15:20 -16.81337 -49.15483 10493 ft 295 kts 169°
2026-05-05 15:20 -16.83428 -49.15116 10871 ft 317 kts 170°
2026-05-05 15:20 -16.85698 -49.14743 11082 ft 341 kts 170°
2026-05-05 15:21 -16.88091 -49.14373 11562 ft 353 kts 171°
2026-05-05 15:21 -16.90505 -49.14013 12271 ft 356 kts 171°
2026-05-05 15:21 -16.92972 -49.13654 13028 ft 358 kts 171°
2026-05-05 15:21 -16.95459 -49.13296 13737 ft 362 kts 172°
2026-05-05 15:22 -16.97971 -49.12938 14402 ft 367 kts 172°
2026-05-05 15:22 -17.00511 -49.12576 15091 ft 370 kts 172°
2026-05-05 15:22 -17.03072 -49.12212 15753 ft 373 kts 172°
2026-05-05 15:22 -17.05655 -49.11844 16390 ft 376 kts 172°
2026-05-05 15:23 -17.08267 -49.11471 17011 ft 380 kts 172°
2026-05-05 15:23 -17.10901 -49.11096 17616 ft 384 kts 172°
2026-05-05 15:23 -17.13558 -49.10718 18228 ft 386 kts 172°
2026-05-05 15:23 -17.16240 -49.10336 18799 ft 390 kts 172°
2026-05-05 15:24 -17.18901 -49.09956 19303 ft 394 kts 172°
2026-05-05 15:24 -17.21636 -49.09565 19858 ft 397 kts 172°
2026-05-05 15:24 -17.24384 -49.09174 20407 ft 400 kts 173°
2026-05-05 15:24 -17.27153 -49.08779 20941 ft 403 kts 173°
2026-05-05 15:25 -17.29940 -49.08373 21410 ft 407 kts 171°
2026-05-05 15:25 -17.32737 -49.07845 21914 ft 410 kts 169°
2026-05-05 15:25 -17.35540 -49.07230 22386 ft 412 kts 168°
2026-05-05 15:25 -17.38350 -49.06581 22836 ft 416 kts 168°
2026-05-05 15:26 -17.41186 -49.05920 23271 ft 419 kts 168°
2026-05-05 15:26 -17.44046 -49.05258 23719 ft 421 kts 168°
2026-05-05 15:26 -17.46914 -49.04600 24144 ft 424 kts 168°
2026-05-05 15:26 -17.49806 -49.03944 24546 ft 426 kts 168°
2026-05-05 15:27 -17.52679 -49.03296 24926 ft 429 kts 169°
2026-05-05 15:27 -17.55602 -49.02640 25342 ft 431 kts 169°
2026-05-05 15:27 -17.58539 -49.01982 25748 ft 433 kts 169°
2026-05-05 15:27 -17.61495 -49.01319 26137 ft 435 kts 169°
2026-05-05 15:28 -17.64463 -49.00655 26509 ft 437 kts 169°
2026-05-05 15:28 -17.67452 -48.99986 26881 ft 439 kts 169°
2026-05-05 15:28 -17.70443 -48.99317 27242 ft 441 kts 169°
2026-05-05 15:28 -17.73455 -48.98642 27599 ft 443 kts 169°
2026-05-05 15:29 -17.76478 -48.97965 27945 ft 445 kts 169°
2026-05-05 15:29 -17.79513 -48.97285 28288 ft 447 kts 169°
2026-05-05 15:29 -17.82561 -48.96602 28608 ft 449 kts 169°
2026-05-05 15:29 -17.85582 -48.95924 28924 ft 451 kts 169°
2026-05-05 15:30 -17.88655 -48.95234 29236 ft 452 kts 169°
2026-05-05 15:30 -17.91740 -48.94541 29551 ft 454 kts 169°
2026-05-05 15:30 -17.94827 -48.93848 29977 ft 452 kts 169°
2026-05-05 15:30 -17.97897 -48.93157 30469 ft 450 kts 169°
2026-05-05 15:31 -18.00948 -48.92470 30986 ft 446 kts 170°
2026-05-05 15:31 -18.03973 -48.91789 31483 ft 443 kts 170°
2026-05-05 15:31 -18.06981 -48.91112 31932 ft 441 kts 170°
2026-05-05 15:31 -18.09978 -48.90438 32352 ft 440 kts 170°
2026-05-05 15:32 -18.12964 -48.89766 32769 ft 438 kts 170°
2026-05-05 15:32 -18.14936 -48.89322 33056 ft 436 kts 171°
2026-05-05 15:32 -18.17898 -48.88655 33474 ft 434 kts 171°
2026-05-05 15:32 -18.20855 -48.87989 33846 ft 433 kts 171°
2026-05-05 15:33 -18.23797 -48.87326 34222 ft 432 kts 171°
2026-05-05 15:33 -18.27679 -48.86450 34701 ft 430 kts 171°
2026-05-05 15:33 -18.29653 -48.86004 34950 ft 429 kts 171°
2026-05-05 15:33 -18.33512 -48.85134 35336 ft 428 kts 171°
2026-05-05 15:34 -18.35488 -48.84689 35553 ft 428 kts 171°
2026-05-05 15:34 -18.38351 -48.84043 35899 ft 426 kts 171°
2026-05-05 15:34 -18.41242 -48.83389 36232 ft 424 kts 171°
2026-05-05 15:35 -18.47087 -48.82071 36290 ft 434 kts 171°
2026-05-05 15:35 -18.54078 -48.80492 36301 ft 444 kts 171°
2026-05-05 15:36 -18.59144 -48.79347 36297 ft 451 kts 171°
2026-05-05 15:36 -18.65325 -48.77946 36295 ft 457 kts 171°
2026-05-05 15:37 -18.71522 -48.76539 36284 ft 458 kts 171°
2026-05-05 15:37 -18.77763 -48.75122 36284 ft 459 kts 171°
2026-05-05 15:38 -18.84003 -48.73705 36283 ft 459 kts 171°
2026-05-05 15:38 -18.90238 -48.72289 36288 ft 458 kts 171°
2026-05-05 15:39 -18.96462 -48.70874 36280 ft 457 kts 171°
2026-05-05 15:39 -19.02647 -48.69467 36287 ft 457 kts 171°
2026-05-05 15:40 -19.08860 -48.68055 36286 ft 456 kts 171°
2026-05-05 15:40 -19.15066 -48.66639 36286 ft 456 kts 171°
2026-05-05 15:41 -19.21278 -48.65223 36284 ft 456 kts 171°
2026-05-05 15:41 -19.27482 -48.63807 36275 ft 456 kts 171°
2026-05-05 15:42 -19.33648 -48.62397 36282 ft 456 kts 171°
2026-05-05 15:42 -19.39854 -48.60978 36274 ft 456 kts 171°
2026-05-05 15:43 -19.46058 -48.59560 36280 ft 456 kts 171°
2026-05-05 15:43 -19.52263 -48.58141 36277 ft 456 kts 171°
2026-05-05 15:44 -19.58467 -48.56719 36269 ft 456 kts 171°
2026-05-05 15:44 -19.64669 -48.55297 36266 ft 456 kts 171°
2026-05-05 15:45 -19.70885 -48.53872 36273 ft 457 kts 171°
2026-05-05 15:45 -19.77098 -48.52445 36268 ft 457 kts 171°
2026-05-05 15:46 -19.83316 -48.51016 36259 ft 457 kts 171°
2026-05-05 15:46 -19.89533 -48.49587 36256 ft 458 kts 171°
2026-05-05 15:47 -19.95716 -48.48163 36249 ft 458 kts 171°
2026-05-05 15:47 -20.01972 -48.46721 36250 ft 457 kts 171°
2026-05-05 15:48 -20.08166 -48.45293 36245 ft 457 kts 171°
2026-05-05 15:48 -20.14390 -48.43857 36246 ft 457 kts 171°
2026-05-05 15:49 -20.20612 -48.42420 36251 ft 457 kts 171°
2026-05-05 15:49 -20.26833 -48.40982 36248 ft 458 kts 171°
2026-05-05 15:50 -20.33064 -48.39539 36237 ft 458 kts 171°
2026-05-05 15:50 -20.39278 -48.38100 36241 ft 457 kts 171°
2026-05-05 15:51 -20.45491 -48.36663 36241 ft 457 kts 171°
2026-05-05 15:51 -20.51671 -48.35231 36230 ft 457 kts 171°
2026-05-05 15:52 -20.57891 -48.33786 36234 ft 457 kts 171°
2026-05-05 15:52 -20.64111 -48.32340 36229 ft 457 kts 171°
2026-05-05 15:53 -20.70329 -48.30895 36229 ft 457 kts 171°
2026-05-05 15:53 -20.76548 -48.29448 36228 ft 457 kts 171°
2026-05-05 15:54 -20.82759 -48.28001 36218 ft 457 kts 171°
2026-05-05 15:54 -20.88965 -48.26554 36224 ft 456 kts 171°
2026-05-05 15:55 -20.95175 -48.25106 36220 ft 457 kts 171°
2026-05-05 15:55 -21.01351 -48.23664 36222 ft 456 kts 171°
2026-05-05 15:56 -21.07554 -48.22216 36222 ft 456 kts 171°
2026-05-05 15:56 -21.13755 -48.20766 36223 ft 456 kts 170°
2026-05-05 15:57 -21.19960 -48.19314 36213 ft 456 kts 171°
2026-05-05 15:57 -21.26121 -48.17869 36189 ft 443 kts 171°
2026-05-05 15:57 -21.29074 -48.17172 36206 ft 426 kts 171°
2026-05-05 15:58 -21.31924 -48.16501 36202 ft 415 kts 171°
2026-05-05 15:58 -21.37548 -48.15185 36223 ft 414 kts 171°
2026-05-05 15:59 -21.43176 -48.13867 36226 ft 415 kts 171°
2026-05-05 15:59 -21.48824 -48.12542 36224 ft 415 kts 171°
2026-05-05 16:00 -21.54477 -48.11212 36227 ft 416 kts 171°
2026-05-05 16:00 -21.60092 -48.09890 36221 ft 416 kts 171°
2026-05-05 16:01 -21.65760 -48.08555 36223 ft 416 kts 171°
2026-05-05 16:01 -21.71413 -48.07222 36217 ft 416 kts 171°
2026-05-05 16:02 -21.77071 -48.05887 36227 ft 416 kts 171°
2026-05-05 16:02 -21.82624 -48.04574 36201 ft 397 kts 171°
2026-05-05 16:02 -21.85300 -48.03939 35920 ft 391 kts 171°
2026-05-05 16:03 -21.87931 -48.03316 35643 ft 385 kts 171°
2026-05-05 16:03 -21.90545 -48.02699 35284 ft 382 kts 171°
2026-05-05 16:03 -21.93132 -48.02087 34926 ft 379 kts 171°
2026-05-05 16:03 -21.95704 -48.01479 34577 ft 377 kts 171°
2026-05-05 16:04 -21.98258 -48.00875 34230 ft 374 kts 171°
2026-05-05 16:04 -22.00790 -48.00276 33871 ft 372 kts 171°
2026-05-05 16:04 -22.03319 -47.99678 33523 ft 370 kts 170°
2026-05-05 16:04 -22.05793 -47.99091 33183 ft 368 kts 170°
2026-05-05 16:05 -22.08315 -47.98493 32833 ft 366 kts 170°
2026-05-05 16:05 -22.10762 -47.97913 32497 ft 364 kts 170°
2026-05-05 16:05 -22.13229 -47.97328 32148 ft 362 kts 170°
2026-05-05 16:05 -22.15687 -47.96745 31812 ft 360 kts 170°
2026-05-05 16:06 -22.18121 -47.96167 31476 ft 358 kts 170°
2026-05-05 16:06 -22.20547 -47.95591 31138 ft 356 kts 170°
2026-05-05 16:06 -22.22961 -47.95018 30815 ft 354 kts 169°
2026-05-05 16:06 -22.25360 -47.94448 30484 ft 352 kts 169°
2026-05-05 16:07 -22.27749 -47.93880 30153 ft 350 kts 169°
2026-05-05 16:07 -22.30123 -47.93316 29822 ft 348 kts 169°
2026-05-05 16:07 -22.32478 -47.92755 29488 ft 346 kts 169°
2026-05-05 16:07 -22.34824 -47.92197 29144 ft 344 kts 169°
2026-05-05 16:08 -22.37153 -47.91643 28812 ft 342 kts 169°
2026-05-05 16:08 -22.39470 -47.91091 28474 ft 340 kts 169°
2026-05-05 16:08 -22.41770 -47.90543 28140 ft 338 kts 169°
2026-05-05 16:08 -22.44065 -47.89996 27812 ft 336 kts 169°
2026-05-05 16:09 -22.46292 -47.89238 27458 ft 337 kts 155°
2026-05-05 16:09 -22.48260 -47.87875 27164 ft 336 kts 142°
2026-05-05 16:09 -22.49881 -47.86062 26840 ft 336 kts 132°
2026-05-05 16:09 -22.51347 -47.84118 26525 ft 334 kts 130°
2026-05-05 16:10 -22.52793 -47.82155 26201 ft 333 kts 130°
2026-05-05 16:10 -22.54229 -47.80206 25877 ft 331 kts 130°
2026-05-05 16:10 -22.55666 -47.78264 25561 ft 329 kts 130°
2026-05-05 16:10 -22.57077 -47.76368 25247 ft 327 kts 130°
2026-05-05 16:11 -22.58504 -47.74457 24933 ft 326 kts 130°
2026-05-05 16:11 -22.62748 -47.68793 23999 ft 320 kts 130°
2026-05-05 16:12 -22.64149 -47.66926 23696 ft 318 kts 130°
2026-05-05 16:12 -22.66927 -47.63220 23085 ft 315 kts 130°
2026-05-05 16:13 -22.71038 -47.57734 22163 ft 311 kts 130°
2026-05-05 16:13 -22.72398 -47.55918 21870 ft 309 kts 130°
2026-05-05 16:13 -22.73749 -47.54113 21571 ft 307 kts 130°
2026-05-05 16:14 -22.76411 -47.50554 20965 ft 305 kts 130°
2026-05-05 16:14 -22.79063 -47.47001 20385 ft 301 kts 130°
2026-05-05 16:15 -22.81680 -47.43497 19800 ft 298 kts 130°
2026-05-05 16:15 -22.84270 -47.40024 19219 ft 295 kts 130°
2026-05-05 16:16 -22.86847 -47.36566 18630 ft 293 kts 130°
2026-05-05 16:16 -22.89378 -47.33167 18061 ft 290 kts 130°
2026-05-05 16:17 -22.91905 -47.29772 17466 ft 288 kts 130°
2026-05-05 16:17 -22.93160 -47.28084 17189 ft 286 kts 130°
2026-05-05 16:18 -22.95647 -47.24737 16604 ft 284 kts 129°
2026-05-05 16:18 -22.96884 -47.23073 16328 ft 283 kts 129°
2026-05-05 16:18 -22.99338 -47.19769 15765 ft 279 kts 129°
2026-05-05 16:19 -23.00554 -47.18130 15467 ft 279 kts 129°
2026-05-05 16:19 -23.01785 -47.16508 15192 ft 277 kts 135°
2026-05-05 16:19 -23.05209 -47.14899 14662 ft 270 kts 169°
2026-05-05 16:20 -23.08270 -47.14255 14197 ft 269 kts 169°
2026-05-05 16:20 -23.12514 -47.13356 13560 ft 266 kts 168°
2026-05-05 16:21 -23.16137 -47.12568 13000 ft 264 kts 168°
2026-05-05 16:22 -23.20873 -47.11527 12507 ft 256 kts 168°
2026-05-05 16:22 -23.24331 -47.10765 12284 ft 253 kts 168°
2026-05-05 16:23 -23.27759 -47.10991 12248 ft 256 kts 213°
2026-05-05 16:23 -23.28994 -47.12373 12240 ft 259 kts 242°
2026-05-05 16:23 -23.28963 -47.16106 12243 ft 259 kts 302°
2026-05-05 16:24 -23.27693 -47.17460 12242 ft 259 kts 332°
2026-05-05 16:24 -23.25992 -47.18110 12250 ft 260 kts 347°
2026-05-05 16:24 -23.22425 -47.18890 12246 ft 263 kts 349°
2026-05-05 16:25 -23.20629 -47.19286 12230 ft 264 kts 348°
2026-05-05 16:25 -23.17132 -47.18901 12245 ft 259 kts 38°
2026-05-05 16:25 -23.16019 -47.17433 12247 ft 256 kts 67°
2026-05-05 16:26 -23.16267 -47.13752 12238 ft 254 kts 126°
2026-05-05 16:26 -23.19231 -47.11874 12253 ft 254 kts 167°
2026-05-05 16:27 -23.20978 -47.11482 12245 ft 257 kts 169°
2026-05-05 16:27 -23.22737 -47.11103 12235 ft 259 kts 168°
2026-05-05 16:27 -23.24501 -47.10713 12242 ft 259 kts 168°
2026-05-05 16:27 -23.26287 -47.10453 12227 ft 259 kts 185°
2026-05-05 16:28 -23.27961 -47.11092 12239 ft 257 kts 216°
2026-05-05 16:28 -23.29124 -47.12546 12241 ft 256 kts 245°
2026-05-05 16:28 -23.29497 -47.14422 12243 ft 256 kts 274°
2026-05-05 16:28 -23.28994 -47.16254 12243 ft 255 kts 302°
2026-05-05 16:29 -23.27735 -47.17588 12241 ft 256 kts 331°
2026-05-05 16:29 -23.26070 -47.18247 12249 ft 256 kts 347°
2026-05-05 16:29 -23.24313 -47.18647 12241 ft 258 kts 349°
2026-05-05 16:29 -23.22569 -47.19019 12237 ft 259 kts 348°
2026-05-05 16:30 -23.20798 -47.19408 12239 ft 260 kts 348°
2026-05-05 16:30 -23.19011 -47.19734 12231 ft 261 kts
2026-05-05 16:30 -23.17288 -47.19232 12238 ft 258 kts 33°
2026-05-05 16:30 -23.16047 -47.17855 12242 ft 257 kts 62°
2026-05-05 16:31 -23.15575 -47.16011 12242 ft 255 kts 91°
2026-05-05 16:31 -23.15970 -47.14153 12242 ft 254 kts 120°
2026-05-05 16:31 -23.17135 -47.12739 12247 ft 253 kts 147°
2026-05-05 16:31 -23.18752 -47.11999 12250 ft 254 kts 166°
2026-05-05 16:32 -23.20488 -47.11590 12239 ft 256 kts 169°
2026-05-05 16:32 -23.22240 -47.11214 12240 ft 257 kts 168°
2026-05-05 16:32 -23.23977 -47.10832 12245 ft 258 kts 168°
2026-05-05 16:32 -23.25740 -47.10466 12240 ft 258 kts 175°
2026-05-05 16:33 -23.27487 -47.10793 12239 ft 257 kts 207°
2026-05-05 16:33 -23.28851 -47.12050 12232 ft 257 kts 236°
2026-05-05 16:33 -23.29472 -47.13822 12240 ft 256 kts 265°
2026-05-05 16:33 -23.29240 -47.15718 12239 ft 256 kts 293°
2026-05-05 16:34 -23.28183 -47.17256 12230 ft 256 kts 323°
2026-05-05 16:34 -23.26591 -47.18100 12246 ft 256 kts 345°
2026-05-05 16:34 -23.24846 -47.18532 12245 ft 258 kts 349°
2026-05-05 16:34 -23.23083 -47.18909 12245 ft 259 kts 349°
2026-05-05 16:35 -23.21310 -47.19295 12237 ft 260 kts 348°
2026-05-05 16:35 -23.19527 -47.19680 12230 ft 261 kts 353°
2026-05-05 16:35 -23.17748 -47.19466 12235 ft 259 kts 24°
2026-05-05 16:35 -23.16330 -47.18303 12237 ft 257 kts 54°
2026-05-05 16:36 -23.15623 -47.16551 12235 ft 255 kts 83°
2026-05-05 16:36 -23.15775 -47.14653 12237 ft 254 kts 111°
2026-05-05 16:36 -23.16743 -47.13075 12242 ft 253 kts 140°
2026-05-05 16:36 -23.18249 -47.12161 12244 ft 253 kts 163°
2026-05-05 16:37 -23.19970 -47.11707 12248 ft 255 kts 168°
2026-05-05 16:37 -23.21719 -47.11329 12243 ft 257 kts 169°
2026-05-05 16:37 -23.23473 -47.10946 12250 ft 258 kts 168°
2026-05-05 16:37 -23.25233 -47.10552 12248 ft 259 kts 169°
2026-05-05 16:38 -23.27014 -47.10589 12225 ft 258 kts 199°
2026-05-05 16:38 -23.28519 -47.11601 12236 ft 257 kts 228°
2026-05-05 16:38 -23.29383 -47.13287 12236 ft 256 kts 257°
2026-05-05 16:38 -23.29396 -47.15200 12243 ft 256 kts 285°
2026-05-05 16:39 -23.28556 -47.16887 12229 ft 256 kts 315°
2026-05-05 16:39 -23.27074 -47.17933 12245 ft 256 kts 340°
2026-05-05 16:39 -23.25351 -47.18426 12251 ft 257 kts 348°
2026-05-05 16:39 -23.23591 -47.18805 12247 ft 259 kts 349°
2026-05-05 16:40 -23.21818 -47.19187 12233 ft 260 kts 348°
2026-05-05 16:40 -23.20061 -47.19577 12236 ft 261 kts 348°
2026-05-05 16:40 -23.18264 -47.19655 12226 ft 260 kts 15°
2026-05-05 16:40 -23.16694 -47.18743 12242 ft 258 kts 45°
2026-05-05 16:41 -23.15747 -47.17122 12236 ft 257 kts 74°
2026-05-05 16:41 -23.15632 -47.15210 12230 ft 255 kts 103°
2026-05-05 16:41 -23.16371 -47.13490 12243 ft 253 kts 131°
2026-05-05 16:41 -23.17769 -47.12356 12245 ft 253 kts 157°
2026-05-05 16:42 -23.19456 -47.11818 12246 ft 254 kts 168°
2026-05-05 16:42 -23.21201 -47.11437 12237 ft 256 kts 169°
2026-05-05 16:42 -23.23000 -47.11046 12274 ft 271 kts 168°
2026-05-05 16:42 -23.24854 -47.10640 12011 ft 274 kts 168°
2026-05-05 16:43 -23.26738 -47.10228 11566 ft 273 kts 168°
2026-05-05 16:43 -23.28596 -47.09822 11237 ft 270 kts 168°
2026-05-05 16:43 -23.30434 -47.09421 10956 ft 269 kts 168°
2026-05-05 16:43 -23.32263 -47.09021 10662 ft 268 kts 168°
2026-05-05 16:44 -23.34094 -47.08621 10394 ft 267 kts 168°
2026-05-05 16:44 -23.35914 -47.08223 10122 ft 266 kts 168°
2026-05-05 16:44 -23.37724 -47.07829 9857 ft 265 kts 168°
2026-05-05 16:44 -23.39527 -47.07434 9593 ft 263 kts 168°
2026-05-05 16:45 -23.41294 -47.06925 9300 ft 263 kts 153°
2026-05-05 16:45 -23.42646 -47.05631 9061 ft 260 kts 122°
2026-05-05 16:45 -23.43364 -47.03873 8851 ft 256 kts 107°
2026-05-05 16:45 -23.43858 -47.01992 8597 ft 255 kts 105°
2026-05-05 16:46 -23.44314 -47.00156 8329 ft 254 kts 105°
2026-05-05 16:46 -23.44772 -46.98304 8070 ft 252 kts 105°
2026-05-05 16:46 -23.45236 -46.96459 7808 ft 252 kts 105°
2026-05-05 16:46 -23.45703 -46.94634 7554 ft 250 kts 105°
2026-05-05 16:47 -23.46171 -46.92812 7292 ft 250 kts 105°
2026-05-05 16:47 -23.46641 -46.90985 6974 ft 252 kts 105°
2026-05-05 16:47 -23.47124 -46.89118 6579 ft 257 kts 105°
2026-05-05 16:47 -23.47613 -46.87237 6271 ft 258 kts 105°
2026-05-05 16:48 -23.48102 -46.85356 6046 ft 256 kts 105°
2026-05-05 16:48 -23.48578 -46.83512 5928 ft 250 kts 105°
2026-05-05 16:48 -23.49045 -46.81713 5808 ft 243 kts 105°
2026-05-05 16:48 -23.49496 -46.79966 5689 ft 236 kts 105°
2026-05-05 16:49 -23.49934 -46.78268 5582 ft 228 kts 105°
2026-05-05 16:49 -23.50357 -46.76636 5461 ft 221 kts 105°
2026-05-05 16:49 -23.50767 -46.75050 5239 ft 215 kts 105°
2026-05-05 16:49 -23.51343 -46.73595 4976 ft 205 kts 133°
2026-05-05 16:50 -23.52438 -46.72731 4839 ft 188 kts 147°
2026-05-05 16:50 -23.53520 -46.71982 4581 ft 180 kts 147°
2026-05-05 16:50 -23.54531 -46.71282 4363 ft 170 kts 147°
2026-05-05 16:50 -23.55535 -46.70585 4257 ft 174 kts 147°
2026-05-05 16:51 -23.56551 -46.69879 3974 ft 166 kts 147°
2026-05-05 16:51 -23.57494 -46.69226 3728 ft 155 kts 147°
2026-05-05 16:51 -23.58381 -46.68612 3518 ft 148 kts 147°
2026-05-05 16:51 -23.59256 -46.68006 3332 ft 150 kts 147°
2026-05-05 16:52 -23.60146 -46.67390 3125 ft 152 kts 147°
2026-05-05 16:52 -23.61041 -46.66770 2928 ft 153 kts 147°
2026-05-05 16:52 -23.61930 -46.66156 2693 ft 154 kts 147°
2026-05-05 16:52 -23.62797 -46.65561 2607 ft 137 kts 148°
2026-05-05 16:53 -23.63221 -46.65266 2609 ft 43 kts 148°
2026-05-05 16:53 -23.63401 -46.65232 2602 ft 18 kts 235°
2026-05-05 16:53 -23.63333 -46.65326 2601 ft 17 kts 325°
2026-05-05 16:53 -23.63235 -46.65398 2601 ft 17 kts 327°
2026-05-05 16:54 -23.63141 -46.65463 2601 ft 16 kts 328°
2026-05-05 16:54 -23.63047 -46.65515 2601 ft 15 kts 347°
2026-05-05 16:54 -23.62953 -46.65555 2602 ft 14 kts 328°
2026-05-05 16:54 -23.62872 -46.65613 2602 ft 14 kts 327°
2026-05-05 16:55 -23.62793 -46.65667 2602 ft 12 kts 328°
2026-05-05 16:55 -23.62756 -46.65732 2600 ft 11 kts 247°
2026-05-05 16:55 -23.62777 -46.65770 2600 ft 4 kts 237°
2026-05-05 16:55 -23.62781 -46.65777 2600 ft 0 kts 237°